Regional Weather Roundup
Issued by NWS

Home | Current Version | Previous Version | Text Only | Print | Product List | Glossary Off
Versions: 1 2 3 4 5 6 7 8 9 10 11 12 13 14 15 16 17 18 19 20 21 22 23 24 25 26 27 28 29 30 31 32 33 34 35 36 37 38 39 40 41 42 43 44 45 46 47 48 49 50

533
ASUS43 KMKX 221200
RWRWI

WISCONSIN REGIONAL WEATHER ROUNDUP
NATIONAL WEATHER SERVICE MILWAUKEE/SULLIVAN WI
700 AM CDT SUN OCT 22 2017

NOTE: "FAIR" INDICATES FEW OR NO CLOUDS BELOW 12,000 FEET WITH NO
SIGNIFICANT WEATHER AND/OR OBSTRUCTIONS TO VISIBILITY.

WIZ001-002-006>008-014>016-023>028-221300-
NORTHWEST WISCONSIN

CITY           SKY/WX    TMP DP  RH WIND       PRES   REMARKS
SUPERIOR ARPT  MOCLDY    47  44  87 SW8       29.82R
6HR MIN TEMP:  47; 6HR MAX TEMP:  54;

ASHLAND        CLOUDY    50  43  77 SW9       29.84R
6HR MIN TEMP:  50; 6HR MAX TEMP:  63;

HAYWARD        CLOUDY    48  42  80 SW7       29.87R
6HR MIN TEMP:  48; 6HR MAX TEMP:  54; 6HR PCP: TRACE;

SIREN          CLOUDY    47  41  78 SW9       29.88S
CUMBERLAND     CLOUDY    46  41  81 W10       29.89R
RICE LAKE      CLOUDY    48  42  80 SW8       29.91R
CHETEK         CLOUDY    49  43  81 SW5       29.91R
LADYSMITH      CLOUDY    49  46  87 SW6       29.90R
EAU CLAIRE     NOT AVBL
MENOMONIE      CLOUDY    50  43  76 SW7       29.93R
6HR MIN TEMP:  50; 6HR MAX TEMP:  56;

NEW RICHMOND   CLOUDY    48  40  74 W7        29.92R
OSCEOLA        MOCLDY    48  41  75 W7        29.94R
$$

WIZ003>005-009-010-017-018-221300-
NORTH CENTRAL WISCONSIN

CITY           SKY/WX    TMP DP  RH WIND       PRES   REMARKS
MANITOWISH WTR CLOUDY    50  50 100 SW7       29.84R
ARBOR VITAE    CLOUDY    52  50  94 W5        29.84S
WOODRUFF       CLOUDY    52  50  94 W5        29.84S
RHINELANDER    CLOUDY    52  52 100 W8        29.87R
6HR MIN TEMP:  51; 6HR MAX TEMP:  66; 6HR PCP:  0.20;

EAGLE RIVER    NOT AVBL
LAND O LAKES   CLOUDY    52  50  93 W9G18     29.87R FOG
6HR MIN TEMP:  52; 6HR MAX TEMP:  65; 6HR PCP:  0.07;

PHILLIPS       CLOUDY    48  47  96 SW6       29.88R
6HR MIN TEMP:  48; 6HR MAX TEMP:  59; 6HR PCP:  0.18;

TOMAHAWK       CLOUDY    50  49  95 SW6       29.88R
MEDFORD        RAIN      49  47  92 W10G18    29.90R
MERRILL        CLOUDY    53  52  98 W12       29.88R
6HR MIN TEMP:  53; 6HR MAX TEMP:  63; 6HR PCP:  0.05;

$$

WIZ029-030-035-036-043>047-221300-
CENTRAL WISCONSIN

CITY           SKY/WX    TMP DP  RH WIND       PRES   REMARKS
WAUSAU         CLOUDY    53  50  89 NW8       29.87R
6HR MIN TEMP:  53; 6HR MAX TEMP:  66; 6HR PCP:  0.20;

MOSINEE        CLOUDY    52  52 100 W8G16     29.89R
MARSHFIELD     LGT RAIN  51  48  89 W9G20     29.90R
6HR MIN TEMP:  51; 6HR MAX TEMP:  61; 6HR PCP:  0.06;

STEVENS POINT  CLOUDY    52  52 100 W8        29.88S FOG
WAUPACA        RAIN      65  60  84 SW6       29.85S
WAUTOMA        CLOUDY   N/A N/A N/A W12       29.89R
WISC RAPIDS    CLOUDY    53  51  93 NW7       29.90R
6HR MIN TEMP:  53; 6HR MAX TEMP:  69; 6HR PCP:  0.07;

CAMP DOUGLAS   NOT AVBL
$$

WIZ011>013-019>022-031-037>040-048>050-221300-
NORTHEAST WISCONSIN

CITY           SKY/WX    TMP DP  RH WIND       PRES   REMARKS
ANTIGO         RAIN      58  57  97 SW16      29.86R
SHAWANO        CLOUDY    67  58  72 S3        29.84S
6HR MIN TEMP:  66; 6HR MAX TEMP:  68;

OCONTO         CLOUDY    62  56  82 S7        29.85R
STURGEON BAY   CLOUDY    60  54  80 S16G26    29.88R
6HR MIN TEMP:  59; 6HR MAX TEMP:  62;

GREEN BAY      CLOUDY    63  58  83 S12       29.86R
6HR MIN TEMP:  63; 6HR MAX TEMP:  67; 6HR PCP: TRACE;

MANITOWOC      NOT AVBL
APPLETON       MOCLDY    64  54  68 S13       29.85R
CLINTONVILLE   NOT AVBL
OSHKOSH        CLOUDY    65  58  78 S16       29.86S
6HR MIN TEMP:  63; 6HR MAX TEMP:  67;

$$

WIZ032>034-041-042-053>061-221300-
SOUTHWEST WISCONSIN

CITY           SKY/WX    TMP DP  RH WIND       PRES   REMARKS
LA CROSSE      LGT RAIN  52  48  86 W7        29.94S
6HR MIN TEMP:  52; 6HR MAX TEMP:  59; 6HR PCP:  0.11;

SPARTA         CLOUDY    49  48  96 W6        29.94R
VIROQUA        CLOUDY    49  49  99 NW9       29.94R
6HR MIN TEMP:  49; 6HR MAX TEMP:  60; 6HR PCP:  0.10;

BOSCOBEL       LGT RAIN  54  50  86 W6        29.93R
6HR MIN TEMP:  54; 6HR MAX TEMP:  62; 6HR PCP:  0.22;

PRAIRIE DU CHI CLOUDY    52  47  84 NW9       29.94S
PLATTEVILLE    CLOUDY    53  53 100 NW10      29.91S
$$

WIZ056-057-062-063-064-067-068-221300-
SOUTH CENTRAL WISCONSIN

CITY           SKY/WX    TMP DP  RH WIND       PRES   REMARKS
REEDSBURG      RAIN      54  54 100 W9        29.91R
6HR MIN TEMP:  54; 6HR MAX TEMP:  67; 6HR PCP:  0.03;

BARABOO/DELLS  DRIZZLE   56  53  91 NW7       29.88R
LONE ROCK      CLOUDY    55  53  93 W12       29.92R
MINERAL POINT  LGT RAIN  54  54 100 NW12G17   29.92R
MADISON        RAIN      64  59  83 S9        29.88R
6HR MIN TEMP:  64; 6HR MAX TEMP:  68; 6HR PCP:  0.02;

MIDDLETON      CLOUDY    64  60  89 S7        29.88R
WATERTOWN      DRIZZLE   62  62 100 S9        29.89S
MONROE         RAIN      61  59  94 S3        29.90R
JANESVILLE     HVY RAIN  63  63 100 S7        29.90R
$$

WIZ051-052-058>065-066-070>072-221300-
SOUTHEAST WISCONSIN

CITY           SKY/WX    TMP DP  RH WIND       PRES   REMARKS
MILWAUKEE      CLOUDY    62  57  83 S8        29.92S
6HR MIN TEMP:  60; 6HR MAX TEMP:  69;

WAUKESHA       CLOUDY    63  55  77 S7        29.92S
MILWAUKEE/TIMM MOCLDY    63  54  72 S8        29.91S
RACINE         CLOUDY    61  56  83 S8        29.93S
6HR MIN TEMP:  60; 6HR MAX TEMP:  63;

BURLINGTON     CLOUDY    63  58  84 S3        29.92R
KENOSHA        PTCLDY    67  58  72 S13       29.92S
6HR MIN TEMP:  66; 6HR MAX TEMP:  68;

FOND DU LAC    LGT RAIN  65  58  78 S9        29.87S
6HR MIN TEMP:  65; 6HR MAX TEMP:  69; 6HR PCP: TRACE;

SHEBOYGAN      CLOUDY    59  56  89 S10       29.89F
6HR MIN TEMP:  59; 6HR MAX TEMP:  62;

WEST BEND      LGT RAIN  64  55  72 S8        29.89F
JUNEAU         CLOUDY    62  60  92 S9G16     29.90R
$$

LSZ147-162-221300-
LAKE SUPERIOR

STATION/POSITION TIME  TEMP    WIND        PRES    WAVE
                       AIR SEA DIR/SP/G            HT/PER
                 (UTC) (F)     (DEG/KT/KT) (MB)    (FT/S)
W MID LAKE BUOY  1050   54 52              1007.1R   4/ 5
DEVILS ISLAND    1100   53     240/ 24/ 31 1008.4R
SAXON HARBOR     1140   54     220/  8/ 14 1009.8R
$$

LMZ867-665-643>646-221300-
LAKE MICHIGAN

STATION/POSITION TIME  TEMP    WIND        PRES    WAVE
                       AIR SEA DIR/SP/G            HT/PER
                 (UTC) (F)     (DEG/KT/KT) (MB)    (FT/S)
S GREEN BAY BUOY 1130   62 58  170/ 16/ 21 1010.6F
N MID LAKE BUOY  1050   62 58  180/ 19/ 23 1012.1F   6/ 7
NORTHPORT PIER   1140   59     160/  8/ 18 1011.5F
KEWAUNEE LAKESHO 1130   53     170/ 13/ 15 1011.4F
SHEBOYGAN LAKESH 1100   58     190/ 20/ 22 1012.3F
PORT WASHINGTON  1140   55     190/  5/  8 1013.5F
ATWATER BUOY     1009   57 52  160/ 17/ 21 1012.8F
MILWAUKEE LAKESH 1130   57     150/  9/  9   N/A
S MID LAKE BUOY  1050   63 60  140/ 17/ 21 1014.1F   3/ 5
KENOSHA   LAKESH 1100   59     180/ 12/ 21 1012.9
$$

TC  - TEMPERATURE IN CELSIUS
VSB - VISIBILITY IN STATUTE MILES
WCI - WIND CHILL INDEX
HX  - HEAT INDEX





USA.gov is the U.S. government's official web portal to all federal, state and local government web resources and services.